Piedras Negras, Mexico

6:15 PM CST on March 26, 2017 (GMT -0600)
Piedras Negras International

Weather History for MMPG - July, 2013

Change the Weather History Date:

Tuesday, July 9, 2013

  Actual Average Record
Temperature  
Mean Temperature 89 °F -  
Max Temperature 101 °F 96 °F 109 °F (2012)
Min Temperature 77 °F 76 °F 75 °F (2002)
Cooling Degree Days 24    
Growing Degree Days 39 (Base 50)    
Moisture  
Dew Point 70 °F    
Average Humidity 55    
Maximum Humidity 83    
Minimum Humidity 29    
Precipitation  
Precipitation 0.00 in - - ()
Sea Level Pressure  
Sea Level Pressure 30.08 in    
Wind  
Wind Speed 6 mph ()    
Max Wind Speed 16 mph    
Max Gust Speed -    
Visibility 11.4 miles    
Events      
Averages and records for this station are not official NWS values.
T = Trace of Precipitation, MM = Missing Value Source: Averaged Metar Reports

Daily Weather History Graph

Daily Weather History Graph

Search for Another Location

Airport or City:

Trip Planner

Search our weather history database for the weather conditions in past years. The results will help you decide how hot, cold, wet, or windy it might be!

Date:

Astronomy

Jul. 09, 2013 Rise Set
Actual Time 6:51 AM CDT 8:43 PM CDT
Civil Twilight 6:24 AM CDT 9:09 PM CDT
Nautical Twilight 5:52 AM CDT 9:42 PM CDT
Astronomical Twilight 5:18 AM CDT 10:16 PM CDT
Moon 8:06 AM CDT (7/9) 9:34 PM CDT (7/9)
Length of Visible Light 14h 45m
Length of Day
13h 52m
New Moon, 2% of the Moon is Illuminated
Jul 9
New Moon
Jul 15
First Quarter
Jul 22
Full
Jul 29
Last Quarter
Aug 6
New

Hourly Weather History & Observations

Time (CDT) Temp. Heat Index Dew Point Humidity Pressure Visibility Wind Dir Wind Speed Gust Speed Precip Events Conditions
12:40 AM 83 °F - 70 °F 56% 30.06 in 12 mi ESE 2.2 mph - -   Mostly Cloudy
3:35 AM 81 °F - 72 °F 68% 30.05 in 12 mi SE 2.2 mph - -   Mostly Cloudy
6:40 AM 79 °F - 73 °F 78% 30.06 in 13 mi SE 2.2 mph - -   Mostly Cloudy
7:00 AM 77.0 °F - 68.0 °F 74% 30.10 in 10.0 mi SSE 11.5 mph - N/A   Mostly Cloudy
7:40 AM 78.8 °F - 69.8 °F 74% 30.10 in 10.0 mi ESE 11.5 mph - N/A   Mostly Cloudy
8:40 AM - - - N/A% 30.12 in 10.0 mi SSE 11.5 mph - N/A   Mostly Cloudy
9:40 AM 78.8 °F - 73.4 °F 83% 30.14 in 10.0 mi SE 13.8 mph - N/A   Mostly Cloudy
9:42 AM 83 °F - 73 °F 66% 30.09 in 14 mi East 4.5 mph - -   Mostly Cloudy
11:40 AM 82.4 °F 87.2 °F 71.6 °F 70% 30.12 in 10.0 mi SSE 16.1 mph - N/A   Mostly Cloudy
12:40 PM 82.4 °F 87.2 °F 71.6 °F 70% 30.12 in 10.0 mi SE 13.8 mph - N/A   Mostly Cloudy
12:41 PM 94 °F - 72 °F 39% 30.05 in 15 mi SE 4.5 mph - -   Mostly Cloudy
1:40 PM 91.4 °F 93.2 °F 64.4 °F 41% 30.10 in 10.0 mi South 11.5 mph - N/A   Mostly Cloudy
2:40 PM 93.2 °F 96.2 °F 66.2 °F 41% 30.10 in 10.0 mi SSE 6.9 mph - N/A   Mostly Cloudy
3:40 PM 95.0 °F 99.5 °F 68.0 °F 41% 30.06 in 10.0 mi SE 6.9 mph - N/A   Mostly Cloudy
3:43 PM 98 °F - 74 °F 37% 30.34 in 15 mi ESE 4.5 mph - -   Partly Cloudy
4:40 PM 95.0 °F 103.2 °F 71.6 °F 47% 30.04 in 10.0 mi SSE 6.9 mph - N/A   Mostly Cloudy
5:40 PM 96.8 °F 100.7 °F 66.2 °F 37% 30.02 in 10.0 mi South 6.9 mph - N/A   Mostly Cloudy
6:40 PM 99 °F - 69 °F 29% 29.96 in 14 mi ESE 4.5 mph - -   Partly Cloudy
9:40 PM 91 °F - 69 °F 39% 29.96 in 12 mi SSE 2.2 mph - -